Regional Weather Roundup
Issued by NWS

Home | Current Version | Previous Version | Text Only | Print | Product List | Glossary Off
Versions: 1 2 3 4 5 6 7 8 9 10 11 12 13 14 15 16 17 18 19 20 21 22 23 24 25 26 27 28 29 30 31 32 33 34 35 36 37 38 39 40 41 42 43 44 45 46 47 48 49 50

000
ASUS45 KBOU 192007
RWRCO

WEATHER ROUNDUP FOR COLORADO
NATIONAL WEATHER SERVICE DENVER/BOULDER CO
100 PM MST FRI DEC 19 2014

NOTE: "FAIR" INDICATES FEW OR NO CLOUDS BELOW 12000 FEET WITH NO
SIGNIFICANT WEATHER AND/OR OBSTRUCTIONS TO VISIBILITY.

COZ001>005-013-030-031-192100-
...NORTHWEST COLORADO...

CITY           SKY/WX    TMP DP  RH WIND       PRES   REMARKS
CRAIG          MIX PCPN  27  22  81 E8        30.19F WCI  19
HAYDEN         CLOUDY    27  19  74 CALM      30.18F
MEEKER         CLOUDY    29  21  72 E3        30.19F
MOUNT WERNER   NOT AVBL
STEAMBOAT SPGS CLOUDY    26  19  74 CALM      30.18S
WALDEN         SUNNY     27  16  63 SW17G24   30.09F WCI  14
$$

COZ006>008-011-192100-
...WEST CENTRAL VALLEYS...

CITY           SKY/WX    TMP DP  RH WIND       PRES   REMARKS
GRAND JUNCTION PTSUNNY   37  28  70 CALM      30.22F
MONTROSE       MOSUNNY   39  21  48 CALM      30.23F
EAGLE          MOSUNNY   32  21  64 CALM      30.20F
RIFLE          MOSUNNY   35  26  69 VRB5      30.21F WCI  31
DELTA          CLOUDY    42  28  56 CALM      30.23F
NUCLA          MOSUNNY   37  25  60 CALM      30.25F
$$

COZ017>023-064>068-192100-
...SOUTHWEST COLORADO...

CITY           SKY/WX    TMP DP  RH WIND       PRES   REMARKS
DURANGO        PTSUNNY   34  21  59 N3        30.18F
CORTEZ         SUNNY     40  23  50 NW10G18   30.19F
PAGOSA SPRINGS SUNNY     32  17  54 SW5       30.16F WCI  27
TELLURIDE      SUNNY     28  12  52 W7        30.18F WCI  20
WOLF CREEK PAS SUNNY     16  14  93 MISG      30.12S
$$

COZ009-010-012-014-032>034-037-058>063-192100-
...CENTRAL COLORADO...

CITY           SKY/WX    TMP DP  RH WIND       PRES   REMARKS
ASPEN          MOSUNNY   30  14  51 NW3       30.16F
BUENA VISTA    SUNNY     36   6  28 NW18G25   30.07F
COPPER MTN     CLOUDY    14   9  79 W16       30.09F WCI  -2
BERTHOUD PASS  CLOUDY     7   1  78 MISG      30.04F
COTTONWOOD PAS SUNNY     32   1  27 W10G17    30.07F WCI  24
GUNNISON       PTSUNNY   28  16  59 E3        30.19F
KREMMLING      CLOUDY    32  19  59 CALM      30.17F
LEADVILLE      MOSUNNY   22   7  52 N10       30.09F WCI  11
MONARCH PASS   CLOUDY    10   7  85 MISG      30.17F
SALIDA         SUNNY     37  12  35 SW10G18   30.15F
SUNLIGHT       LGT SNOW N/A N/A N/A CALM      30.15F
WILKERSON PASS SUNNY     21   5  49 NW8G17    30.05S WCI  12
$$

COZ069>075-192100-
...SAN LUIS VALLEY/SANGRE DE CRISTO MOUNTAINS...

CITY           SKY/WX    TMP DP  RH WIND       PRES   REMARKS
ALAMOSA        SUNNY     33  14  45 VRB5      30.13F WCI  29
LA VETA PASS   SUNNY     21  14  73 S14G24    30.04F HAZE    WCI   8
SAGUACHE       SUNNY     32  18  55 CALM      30.13F
$$

COZ035-036-038>040-192100-
...NORTHERN COLORADO FRONT RANGE...

CITY           SKY/WX    TMP DP  RH WIND       PRES   REMARKS
DENVER INTL AP MOSUNNY   45  11  25 S6        30.01F
DMNS CITY PARK   N/A     47  10  22 SE3       30.00F
AURORA         MOSUNNY   44  10  24 SW3       30.02F
FRONT RANGE AP MOSUNNY   46  14  27 SW9       30.03
ERIE MUNI ARPT   N/A     48  12  23 S10       30.00F
BOULDER MUN AP SUNNY     48  12  23 SE5       29.98F
CENTENNIAL     MOSUNNY   41  10  28 VRB3      30.01F
BROOMFIELD     MOSUNNY   46  14  27 MISG        N/A
FORT COLLINS   SUNNY     45  21  39 E7        30.02F
LONGMONT       SUNNY     52  14  22 SE7       30.00F
$$

COZ041-046-047-076>085-087-088-192100-
...PIKES PEAK/PALMER DIVIDE AND SOUTHERN FOOTHILLS...

CITY           SKY/WX    TMP DP  RH WIND       PRES   REMARKS
COLO. SPRINGS  MOSUNNY   42   9  25 E3        30.04F
A. F. ACADEMY  SUNNY     42   6  22 NW8       30.02F
ELLICOTT       NOT AVBL
FALCON         SUNNY     42  13  31 CALM      30.04F
FORT CARSON    SUNNY     43  15  31 VRB1      30.03F
LIMON          SUNNY     43  24  47 CALM      30.04F
MONUMENT HILL  SUNNY     37  12  35 S3        30.02F
TRINIDAD       SUNNY     45  13  27 E6        30.04F
$$

COZ042>045-048>051-090-091-192100-
...NORTHEAST COLORADO...

CITY           SKY/WX    TMP DP  RH WIND       PRES   REMARKS
GREELEY ARPT   SUNNY     48  21  34 S7        30.00F
AKRON          SUNNY     35  26  69 SW15      30.03F WCI  25
BURLINGTON     SUNNY     45  22  40 SW9       30.05F
WRAY           SUNNY     40  32  72 SW3       30.05F
STERLING       SUNNY     32  27  80 SW9       30.03F WCI  24
HOLYOKE        NOT AVBL
FORT MORGAN    SUNNY     35  26  68 W6        30.04F WCI  30
$$

COZ086-089-092>099-192100-
...SOUTHEAST COLORADO...

CITY           SKY/WX    TMP DP  RH WIND       PRES   REMARKS
PUEBLO         SUNNY     47  20  34 NE6       30.04F
LA JUNTA       SUNNY     43  29  57 VRB3      30.06F
LAMAR          SUNNY     44  32  62 VRB6      30.06F
SPRINGFIELD    NOT AVBL
$$



USA.gov is the U.S. government's official web portal to all federal, state and local government web resources and services.